Location: ????????
(56.0167°N, 38.0333°E)
Time: 03:39:59
(UTC+00:00)

SL-24 R/B - RUBIN 2 - Pass Details

Date: 19 May 2025
Orbit: 587 x 1000 km, 64.6° (Epoch: 15 June)

Event Time Altitude Azimuth Distance (km) Brightness Sun altitude
Exits shadow 22:37:03 - 235° (SW) 2,729 6.4 -12.5°
Reaches altitude 10° 22:37:16 10° 235° (SW) 2,652 6.3 -12.5°
Maximum altitude 22:43:29 78° 322° (NW) 900 4.4 -12.2°
Drops below altitude 10° 22:49:05 10° 49° (NE) 2,394 7.6 -11.9°
Sets 22:51:23 0° 51° (NE) 3,263 8.4 -11.8°
